This is the latest recevied weather packets stored in our database for station/object SV2BZQ-1. If no packets are shown the sender has not sent any weather packets the latest 1 day(s).
| Time | Temp. | Humidity | Pressure | Rain* | Wind** | Luminosity | Snow |
|---|---|---|---|---|---|---|---|
| 1778065446 | 20.56° C | 66% | 1014.1 hPa | 0 mm | - | - | - |
| 1778064779 | 20.56° C | 65% | 1014.1 hPa | 0 mm | - | - | - |
| 1778064652 | 20.56° C | 65% | 1014.1 hPa | 0 mm | - | - | - |
| 1778064538 | 20.56° C | 65% | 1014.1 hPa | 0 mm | - | - | - |
| 1778064174 | 20.56° C | 62% | 1014.3 hPa | 0 mm | - | - | - |
| 1778064056 | 20.56° C | 62% | 1014.3 hPa | 0 mm | - | - | - |
| 1778063944 | 20.56° C | 62% | 1014.3 hPa | 0 mm | - | - | - |
| 1778063817 | 20.56° C | 61% | 1014.3 hPa | 0 mm | - | - | - |
| 1778063205 | 20.56° C | 60% | 1014.4 hPa | 0 mm | - | - | - |
| 1778063082 | 20.56° C | 59% | 1014.4 hPa | 0 mm | - | - | - |
| 1778062974 | 20.56° C | 60% | 1014.4 hPa | 0 mm | - | - | - |
| 1778062868 | 21.11° C | 60% | 1014.4 hPa | 0 mm | - | - | - |
| 1778062600 | 21.11° C | 61% | 1014.4 hPa | 0 mm | - | - | - |
| 1778062356 | 21.67° C | 65% | 1014.4 hPa | 0 mm | - | - | - |
| 1778062113 | 21.67° C | 66% | 1014.4 hPa | 0 mm | - | - | - |
| 1778061493 | 21.11° C | 69% | 1014.6 hPa | 0 mm | - | - | - |
| 1778061145 | 20.56° C | 69% | 1014.6 hPa | 0 mm | - | - | - |
| 1778061010 | 20.56° C | 68% | 1014.6 hPa | 0 mm | - | - | - |
| 1778060651 | 20.56° C | 69% | 1014.7 hPa | 0 mm | - | - | - |
| 1778060507 | 20.56° C | 69% | 1014.7 hPa | 0 mm | - | - | - |
| 1778060277 | 20.56° C | 70% | 1014.7 hPa | 0 mm | - | - | - |
| 1778060150 | 20° C | 69% | 1014.7 hPa | 0 mm | - | - | - |
| 1778059662 | 20° C | 68% | 1014.7 hPa | 0 mm | - | - | - |
| 1778059541 | 20.56° C | 68% | 1014.7 hPa | 0 mm | - | - | - |
| 1778059416 | 20.56° C | 68% | 1014.7 hPa | 0 mm | - | - | - |
* Rain latest hour (hover to see other rain measurements)
** Current wind speed in m/s (hover to see current wind gust speed)